Other Public Products
Issued by NWS Grand Forks, ND

Home | Current Version | Previous Version | Text Only | Print | Product List | Glossary Off
Versions: 1 2 3 4 5 6 7 8 9 10 11 12 13 14 15 16 17 18 19 20 21 22 23 24 25 26 27 28 29 30 31 32 33 34 35 36 37 38 39 40 41 42 43 44 45 46 47 48 49 50

000
FPUS83 KFGF 300831
OPUFGF
PRAIRIE TO PINES WEATHER ROUNDUP
NATIONAL WEATHER SERVICE EASTERN NORTH DAKOTA/GRAND FORKS ND
300 AM CDT MON MAR 30 2015

 **SATELLITE DATA USED TO AUGMENT SKY COVER AT AUTOMATED STATIONS**
 *****  WEATHER ACROSS EASTERN NORTH DAKOTA  *****

CITY           SKY/WX    TMP DP  RH WIND       PRES   REMARKS
GRAND FORKS    CLEAR     32  27  81 W8        29.89S WCI  25
GRAND FORKS AF CLEAR     29  26  88 W5        29.88F WCI  24
GRAND CITY NWS   N/A     30 N/A N/A W2          N/A
BUXTON         NOT AVBL
DEVILS LAKE    CLOUDY    37  30  75 SW6       29.88S
FARGO          CLEAR     33  26  75 SW7       29.92S
WAHPETON ARPT  SUNNY     32  27  80 W5        29.94S
$$

 *****  WEATHER ACROSS CENTRAL AND WESTERN NORTH DAKOTA  *****

CITY           SKY/WX    TMP DP  RH WIND       PRES   REMARKS
JAMESTOWN      MOCLDY    31  28  89 SW5       29.91S
BISMARCK       PTCLDY    36  30  79 CALM      29.92S
MINOT          MOCLDY    37  30  75 SE6       29.83F
MINOT AFB      MOCLDY    35  35  99 S9        29.81F
GARRISON         N/A     39  30  70 SW6       29.86F
WILLISTON      CLOUDY    44  34  67 SW8       29.83F
DICKINSON      PTCLDY    39  28  64 SW6       29.89F
HETTINGER      CLEAR     36  27  69 CALM      29.96F
$$

 *****  OTHER OBSERVATIONS NORTHEAST NORTH DAKOTA  *****

CITY           SKY/WX    TMP DP  RH WIND       PRES   REMARKS
WALHALLA         N/A     36  32  87 SW3       29.87S
LANGDON        NOT AVBL
CAVALIER       FAIR      36  28  75 W7        29.87F
GRAFTON        NOT AVBL
CANDO          CLOUDY    32  32 100 CALM      29.88S
FORT TOTTEN      N/A     38  30  72 SE3       29.95
ROLLA          PTSUNNY   36  34  93 SW5       29.87S
RUGBY          NOT AVBL
 ***** THE ABOVE OBSERVATIONS ARE NON NWS ARE NOT QUALITY
        CONTROLLED AND MAY MIS-REPORT RAIN FOR SNOW...
$$

 *****  OTHER OBSERVATIONS SOUTHEAST NORTH DAKOTA *****

CITY           SKY/WX    TMP DP  RH WIND       PRES   REMARKS
COOPERSTOWN    NOT AVBL
VALLEY CITY    PTSUNNY   32  32 100 S6        29.91F
OAKES            N/A     30  30 100 S6        29.93F WCI  24
GWINNER          N/A     34  32  93 SW7         N/A
SHEYENNE NWR     N/A     31  27  86 W3        29.95S
BUFFALO        NOT AVBL
WYNDMERE         N/A     34  28  80 SW6         N/A
 ***** THE ABOVE OBSERVATIONS ARE NON NWS ARE NOT QUALITY
       CONTROLLED AND MAY MIS-REPORT RAIN FOR SNOW...
$$

  *****  WEATHER ACROSS NORTHERN MINNESOTA  *****

CITY           SKY/WX    TMP DP  RH WIND       PRES   REMARKS
FLAG ISLAND    CLEAR     30  25  80 CALM      29.83S
WARROAD        CLEAR     32  28  86 CALM      29.85F
ROSEAU         CLEAR     36  28  75 W5        29.85S
HALLOCK        PTCLDY    32  30  93 S3        29.86F
THF RVR FALLS  CLEAR     34  28  80 CALM      29.88F
HALSTAD        NOT AVBL
FOSSTON        CLEAR     25  23  93 CALM      29.89F
BAUDETTE       CLEAR     33  24  69 W5        29.84S
WASKISH        CLEAR     32  30  93 CALM      29.86S
CROOKSTON      CLEAR     28  27  93 W5        29.90S WCI  23
$$
  *****  WEATHER ACROSS CENTRAL AND WEST MINNESOTA  *****

CITY           SKY/WX    TMP DP  RH WIND       PRES   REMARKS
BEMIDJI        CLEAR     31  26  81 W5        29.87F
PARK RAPIDS    CLEAR     31  26  82 W6        29.89F
WADENA         CLEAR     32  27  80 W6        29.91S
DETROIT LAKES  CLEAR     34  30  86 S3        29.91S
MOORHEAD       CLEAR     36  32  87 SW5       29.92F
FERGUS FALLS   CLEAR     34  27  75 CALM      29.95S
ELBOW LAKE     FAIR      33  28  79 SW6       29.93S
MORRIS MN      CLEAR     34  27  75 W3        29.94F
STAPLES        CLEAR     34  27  75 CALM      29.91S
WHEATON        CLEAR     34  27  75 CALM      29.97S
$$
  *****  WEATHER ELSEWHERE ACROSS MINNESOTA  *****

CITY           SKY/WX    TMP DP  RH WIND       PRES   REMARKS
DULUTH         CLEAR     37  25  61 W12       29.83S
INTRNTL FALLS  CLEAR     31  23  72 W5        29.82S
ELY            CLEAR     36  25  64 W7        29.80R
CLOQUET        CLEAR     36  25  64 W9        29.85F
BRAINERD       CLEAR     30  23  75 SW3       29.91S
HIBBING        CLEAR     35  24  64 W7        29.84R
ALEXANDRIA     CLEAR     32  26  78 SW6       29.94F
SAINT CLOUD    PTCLDY    37  27  67 SW6       29.93F
MINNEAPOLIS    CLOUDY    41  29  62 SW7       29.96S
$$

  *****  WEATHER ACROSS SOUTH DAKOTA  *****

CITY           SKY/WX    TMP DP  RH WIND       PRES   REMARKS
SIOUX FALLS    MOCLDY    35  21  56 CALM      30.03F
BROOKINGS      NOT AVBL
WATERTOWN      MOCLDY    30  24  78 S7        29.98F WCI  23
HURON          MOCLDY    39  24  55 SW7       29.99F
SISSETON         N/A     41  27  57 W8        29.94S
ABERDEEN       CLOUDY    34  26  72 SW6       29.97S
MITCHELL       MOCLDY    42  25  50 S5        30.02F
PIERRE         PTCLDY    42  29  59 SW7       29.97F
MOBRIDGE       CLOUDY    40  30  67 SE7       29.92F
RAPID CITY     PTCLDY    36  26  67 CALM      30.00F
$$

  *****  SOME WEATHER IN NEARBY STATES *****

CITY           SKY/WX    TMP DP  RH WIND       PRES   REMARKS
GLASGOW MT     MOCLDY    46  31  55 W12       29.88S
GREAT FALLS MT CLOUDY    50  30  46 SW15      30.04R
CHEYENNE WY    CLEAR     38  23  55 W12       30.14F
SCOTTSBLUFF NE CLEAR     37  23  56 E7        30.07F
OMAHA NE       PTCLDY    38  26  62 S6        30.12R
DES MOINES IA  CLEAR     39  23  52 SW5       30.10S
DAVENPORT IA   CLEAR     31  26  82 W6        30.05S
CHICAGO IL     PTCLDY    37  29  72 W7        29.95S
EAU CLAIRE WI  CLEAR     34  25  69 W7        29.92S
LA CROSSE WI   CLEAR     33  26  75 CALM      29.97R
$$

  *****  SOME NATIONAL WEATHER *****

CITY           SKY/WX    TMP DP  RH WIND       PRES   REMARKS
LA GUARDIA NY  CLOUDY    39  12  33 SW10      30.02F
RALEIGH NC     MOCLDY    42  18  37 SW15      30.14F
ATLANTA GA     CLOUDY    52  34  50 SW10      30.11F
NEW ORLEANS LA CLEAR     64  60  87 W7        30.17S
OKLAHOMA CITY  CLEAR     53  39  59 N5        30.16F
ALBUQUERQUE NM PTCLDY    58  24  27 E17       30.24R
SALT LAKE CITY CLEAR     43  29  57 SW3       30.19S
LOS ANGELES CA MOCLDY    60  57  89 VRB5      30.02F
BOISE ID       CLEAR     48  30  49 SE9       30.15F
SEATTLE WA     CLOUDY    54  49  83 S6        30.15F
$$

*** WEATHER ACROSS MANITOBA...SASKATCHEWAN AND ONTARIO ***
                ***ONTARIO***

CITY           SKY/WX    TMP DP  RH WIND       PRES   REMARKS
GERALDTON      FLURRIES  28  23  80 NW10      29.60R WCI  19
THUNDER BAY    MOCLDY    32  28  86 W9        29.73R WCI  24
SIOUX LOOKOUT  MOCLDY    27  25  93 NW10      29.78R WCI  17
TORONTO        LGT RAIN  37  34  87 SW18G31   29.56F
BIG TROUT LK   CLEAR     -2  -4  92 NW5       29.84R WCI -12
PICKLE LAKE    NOT AVBL
DRYDEN         CLEAR     28  27  93 NW7       29.79S WCI  21
KENORA         CLEAR     34  25  69 N6        29.82S
$$
                *** MANITOBA***

CITY           SKY/WX    TMP DP  RH WIND       PRES   REMARKS
BRANDON        CLOUDY    34  30  86 NW3       29.86R
DAUPHIN        CLOUDY    37  28  70 SW8       29.81F
ISLAND LAKE    MOCLDY     9   7  92 E3        29.88R
PILOT MOUND      N/A     32  30  93 SW5         N/A
THE PAS        CLOUDY    30  25  80 SE8       29.74F WCI  23
THOMPSON       CLEAR      9   7  92 E3        29.85S
WINNIPEG       PTCLDY    32  27  80 W7        29.85S
LYNN LAKE      CLEAR     18  16  93 SE5       29.72F WCI  11
CHURCHILL      CLEAR     -4  -8  84 NW6       29.96R WCI -16
GILLAM         CLEAR     -6  -9  84 CALM      29.92R
$$
                ***SASKATCHEWAN***

CITY           SKY/WX    TMP DP  RH WIND       PRES   REMARKS
ESTEVAN        CLOUDY    36  32  87 S6        29.77F
KINDERSLEY     PTCLDY    39  36  87 W8        29.82R
LLOYDMINSTER   CLEAR     34  32  93 W10       29.80R
PRINCE ALBERT  MOCLDY    41  34  75 VRB3      29.71F
REGINA         PTCLDY    39  36  87 E9        29.77R



USA.gov is the U.S. government's official web portal to all federal, state and local government web resources and services.